Powrót do katalogu

SL-16 DEB

AktywnyLEO
NORAD 22509·DEBRIS·🇷🇺 Russia

Wystrzelony Dec 25, 1992 z Baikonur Cosmodrome

Loading…

Następne Przeloty (najbliższe 24 godziny)

TLE

ŚwieżeSource: Space-Track

Epoka: Sep 14, 2026, 01:10 UTC

1 22509U 92093GU  26257.04909388  .00001371  00000-0  55281-3 0  9990
2 22509  71.1266 119.3128 0103988 342.3342 167.5041 14.26794881728111

Śledź SL-16 DEB w czasie rzeczywistym z AllMySat

Download on the App Store